When you browse on this site, cookies collect data to enhance your experience and personalize the content and advertising you see.
Visit our Privacy Policy to learn more. By continuing to use the site, you agree to this use of cookies and data.
  • In Hungary
  • List of Countries
  • For 7 days
  • Water Temperature
  • Satellite Maps
  • Weather Map
  • News
  • Weather Widgets
  • user-avatar
    Login

    Hourly Weather Rzaska

    Today, 26 May, Sunday

    Time Temperature Precipitation Wind Pressure Humidity
    00:00 +13°C° 0 mm 1 mps 738 mmHg 87%
    01:00 +12°C° 0 mm 1 mps 739 mmHg 88%
    02:00 +12°C° 0 mm 1 mps 739 mmHg 89%
    03:00 +12°C° 0 mm 1 mps 739 mmHg 89%
    04:00 +12°C° 0 mm 1 mps 739 mmHg 90%
    05:00 +14°C° 0 mm 1 mps 739 mmHg 85%
    06:00 +15°C° 0 mm 1 mps 739 mmHg 81%
    07:00 +17°C° 0 mm 2 mps 739 mmHg 77%
    08:00 +18°C° 0 mm 2 mps 739 mmHg 73%
    09:00 +20°C° 0 mm 3 mps 739 mmHg 69%
    10:00 +21°C° 0 mm 3 mps 739 mmHg 65%
    11:00 +21°C° 0.1 mm 3 mps 739 mmHg 63%
    12:00 +22°C° 0.1 mm 3 mps 738 mmHg 60%
    13:00 +23°C° 0.1 mm 4 mps 738 mmHg 58%
    14:00 +24°C° 0.3 mm 3 mps 738 mmHg 61%
    15:00 +22°C° 0.3 mm 3 mps 738 mmHg 63%
    16:00 +22°C° 0.3 mm 3 mps 738 mmHg 66%
    17:00 +21°C° 0.4 mm 3 mps 738 mmHg 71%
    18:00 +19°C° 0.4 mm 2 mps 738 mmHg 76%
    19:00 +18°C° 0.4 mm 2 mps 738 mmHg 81%
    20:00 +17°C° 0 mm 2 mps 738 mmHg 84%
    21:00 +16°C° 0 mm 2 mps 738 mmHg 87%
    22:00 +15°C° 0 mm 2 mps 738 mmHg 90%
    23:00 +15°C° 0 mm 2 mps 738 mmHg 91%

    Tomorrow, 27 May, Monday

    Time Temperature Precipitation Wind Pressure Humidity
    00:00 +15°C° 0 mm 2 mps 738 mmHg 91%
    01:00 +14°C° 0 mm 2 mps 738 mmHg 91%
    02:00 +14°C° 0 mm 2 mps 737 mmHg 91%
    03:00 +14°C° 0 mm 2 mps 737 mmHg 91%
    04:00 +14°C° 0 mm 2 mps 737 mmHg 90%
    05:00 +15°C° 0.1 mm 2 mps 737 mmHg 87%
    06:00 +17°C° 0.1 mm 2 mps 737 mmHg 84%
    07:00 +19°C° 0.1 mm 2 mps 737 mmHg 80%
    08:00 +20°C° 0.5 mm 3 mps 737 mmHg 76%
    09:00 +22°C° 0.5 mm 3 mps 737 mmHg 72%
    10:00 +23°C° 0.5 mm 4 mps 737 mmHg 67%
    11:00 +23°C° 0.3 mm 4 mps 737 mmHg 65%
    12:00 +25°C° 0.3 mm 4 mps 737 mmHg 62%
    13:00 +25°C° 0.3 mm 4 mps 737 mmHg 59%
    14:00 +25°C° 0 mm 3 mps 736 mmHg 59%
    15:00 +26°C° 0 mm 3 mps 736 mmHg 59%
    16:00 +26°C° 0 mm 2 mps 736 mmHg 59%
    17:00 +24°C° 0.1 mm 2 mps 736 mmHg 64%
    18:00 +23°C° 0.1 mm 1 mps 736 mmHg 70%
    19:00 +21°C° 0.1 mm 1 mps 735 mmHg 75%
    20:00 +21°C° 0.1 mm 1 mps 735 mmHg 78%
    21:00 +20°C° 0.1 mm 1 mps 735 mmHg 80%
    22:00 +17°C° 0.1 mm 0 mps 735 mmHg 83%
    23:00 +19°C° 0.6 mm 1 mps 735 mmHg 86%

    Day after tomorrow, 28 May, Tuesday

    Time Temperature Precipitation Wind Pressure Humidity
    00:00 +18°C° 0.6 mm 1 mps 734 mmHg 89%
    01:00 +18°C° 0.6 mm 1 mps 734 mmHg 92%
    02:00 +18°C° 0.4 mm 1 mps 734 mmHg 93%
    03:00 +16°C° 0.4 mm 1 mps 733 mmHg 94%
    04:00 +16°C° 0.4 mm 2 mps 733 mmHg 95%
    05:00 +18°C° 0 mm 2 mps 732 mmHg 91%
    06:00 +19°C° 0 mm 2 mps 732 mmHg 87%
    07:00 +20°C° 0 mm 2 mps 732 mmHg 83%
    08:00 +21°C° 0 mm 3 mps 732 mmHg 74%
    09:00 +24°C° 0 mm 3 mps 732 mmHg 65%
    10:00 +25°C° 0 mm 4 mps 732 mmHg 57%
    11:00 +25°C° 0 mm 3 mps 732 mmHg 58%
    12:00 +25°C° 0 mm 3 mps 731 mmHg 58%
    13:00 +25°C° 0 mm 2 mps 731 mmHg 59%
    14:00 +25°C° 0.2 mm 2 mps 731 mmHg 61%
    15:00 +25°C° 0.2 mm 2 mps 730 mmHg 62%
    16:00 +25°C° 0.2 mm 1 mps 730 mmHg 63%
    17:00 +23°C° 1.6 mm 2 mps 730 mmHg 69%
    18:00 +21°C° 1.6 mm 2 mps 730 mmHg 76%
    19:00 +19°C° 1.6 mm 3 mps 730 mmHg 83%
    20:00 +17°C° 0.4 mm 3 mps 730 mmHg 87%
    21:00 +15°C° 0.4 mm 4 mps 731 mmHg 91%
    22:00 +14°C° 0.4 mm 4 mps 731 mmHg 95%
    23:00 +13°C° 0 mm 4 mps 731 mmHg 94%

    29 May, Wednesday

    Time Temperature Precipitation Wind Pressure Humidity
    00:00 +12°C° 0 mm 4 mps 732 mmHg 94%
    01:00 +11°C° 0 mm 4 mps 732 mmHg 94%
    02:00 +11°C° 0 mm 3 mps 732 mmHg 93%
    03:00 +11°C° 0 mm 3 mps 733 mmHg 93%
    04:00 +11°C° 0 mm 3 mps 733 mmHg 93%
    05:00 +11°C° 0 mm 3 mps 733 mmHg 92%
    06:00 +11°C° 0 mm 3 mps 733 mmHg 91%
    07:00 +12°C° 0 mm 3 mps 734 mmHg 90%
    08:00 +12°C° 0.1 mm 3 mps 734 mmHg 87%
    09:00 +14°C° 0.1 mm 2 mps 734 mmHg 84%
    10:00 +15°C° 0.1 mm 2 mps 735 mmHg 80%
    11:00 +14°C° 0.7 mm 2 mps 735 mmHg 83%
    12:00 +14°C° 0.7 mm 2 mps 735 mmHg 86%
    13:00 +14°C° 0.7 mm 2 mps 735 mmHg 88%
    14:00 +12°C° 0.8 mm 3 mps 735 mmHg 90%
    15:00 +12°C° 0.8 mm 3 mps 735 mmHg 91%
    16:00 +11°C° 0.8 mm 3 mps 736 mmHg 92%
    17:00 +11°C° 0.7 mm 3 mps 736 mmHg 93%
    18:00 +11°C° 0.7 mm 3 mps 736 mmHg 94%
    19:00 +11°C° 0.7 mm 3 mps 737 mmHg 95%
    20:00 +11°C° 0.8 mm 3 mps 737 mmHg 95%
    21:00 +11°C° 0.8 mm 3 mps 737 mmHg 95%
    22:00 +10°C° 0.8 mm 3 mps 738 mmHg 95%
    23:00 +10°C° 0.4 mm 3 mps 738 mmHg 95%

    30 May, Thursday

    Time Temperature Precipitation Wind Pressure Humidity
    00:00 +10°C° 0.4 mm 3 mps 738 mmHg 96%
    01:00 +10°C° 0.4 mm 3 mps 739 mmHg 96%
    02:00 +10°C° 0.5 mm 3 mps 739 mmHg 96%
    03:00 +10°C° 0.5 mm 3 mps 740 mmHg 96%
    04:00 +11°C° 0.5 mm 3 mps 740 mmHg 96%
    05:00 +11°C° 0.3 mm 4 mps 741 mmHg 95%
    06:00 +10°C° 0.3 mm 5 mps 741 mmHg 93%
    07:00 +10°C° 0.3 mm 6 mps 742 mmHg 92%
    08:00 +10°C° 0 mm 5 mps 742 mmHg 87%
    09:00 +12°C° 0 mm 5 mps 743 mmHg 81%
    10:00 +13°C° 0 mm 5 mps 743 mmHg 76%
    11:00 +14°C° 0 mm 4 mps 744 mmHg 68%
    12:00 +15°C° 0 mm 4 mps 744 mmHg 61%
    13:00 +18°C° 0 mm 3 mps 744 mmHg 53%
    14:00 +18°C° 0 mm 3 mps 744 mmHg 53%
    15:00 +18°C° 0 mm 3 mps 744 mmHg 53%
    16:00 +18°C° 0 mm 2 mps 744 mmHg 52%
    17:00 +17°C° 0 mm 2 mps 744 mmHg 58%
    18:00 +15°C° 0 mm 1 mps 744 mmHg 63%
    19:00 +14°C° 0 mm 1 mps 744 mmHg 68%
    20:00 +13°C° 0 mm 1 mps 745 mmHg 71%
    21:00 +11°C° 0 mm 1 mps 745 mmHg 74%
    22:00 +10°C° 0 mm 1 mps 745 mmHg 77%
    23:00 +10°C° 0 mm 1 mps 745 mmHg 79%

    31 May, Friday

    Time Temperature Precipitation Wind Pressure Humidity
    00:00 +9°C° 0 mm 1 mps 745 mmHg 80%
    01:00 +9°C° 0 mm 1 mps 745 mmHg 81%
    02:00 +8°C° 0 mm 2 mps 745 mmHg 80%
    03:00 +8°C° 0 mm 2 mps 745 mmHg 79%
    04:00 +8°C° 0 mm 2 mps 744 mmHg 78%
    05:00 +10°C° 0 mm 2 mps 744 mmHg 74%
    06:00 +13°C° 0 mm 2 mps 744 mmHg 71%
    07:00 +14°C° 0 mm 3 mps 744 mmHg 68%
    08:00 +17°C° 0 mm 4 mps 744 mmHg 66%
    09:00 +18°C° 0 mm 4 mps 744 mmHg 64%
    10:00 +20°C° 0 mm 5 mps 744 mmHg 63%
    11:00 +20°C° 0.1 mm 5 mps 744 mmHg 64%
    12:00 +21°C° 0.1 mm 5 mps 743 mmHg 65%
    13:00 +21°C° 0.1 mm 6 mps 743 mmHg 67%
    14:00 +20°C° 0.3 mm 5 mps 744 mmHg 71%
    15:00 +19°C° 0.3 mm 5 mps 744 mmHg 75%
    16:00 +17°C° 0.3 mm 5 mps 744 mmHg 79%
    17:00 +17°C° 0.4 mm 4 mps 744 mmHg 82%
    18:00 +15°C° 0.4 mm 4 mps 745 mmHg 86%
    19:00 +14°C° 0.4 mm 4 mps 745 mmHg 90%
    20:00 +12°C° 0 mm 3 mps 746 mmHg 91%
    21:00 +12°C° 0 mm 2 mps 747 mmHg 92%
    22:00 +11°C° 0 mm 1 mps 747 mmHg 93%
    23:00 +10°C° 0 mm 1 mps 747 mmHg 93%
    Show more